Ravenna, OH

6:42 PM EST on February 26, 2017 (GMT -0500)
Ravenna

Weather History for KPOV - April, 2013

Change the Weather History Date:

Tuesday, April 9, 2013

  Actual Average (KCAK) Record (KCAK)
Temperature  
Mean Temperature 60 °F -  
Max Temperature 77 °F 54 °F 80 °F (2013)
Min Temperature 44 °F 34 °F 15 °F (1972)
Degree Days  
Heating Degree Days 4    
Growing Degree Days 10 (Base 50)    
Moisture  
Dew Point 47 °F    
Average Humidity 57    
Maximum Humidity 90    
Minimum Humidity 38    
Precipitation  
Precipitation 0.00 in - - ()
Sea Level Pressure  
Sea Level Pressure 30.00 in    
Wind  
Wind Speed 9 mph (SW)    
Max Wind Speed 16 mph    
Max Gust Speed 25 mph    
Visibility 10 miles    
Events Rain    
Averages and records for this station are not official NWS values.
T = Trace of Precipitation, MM = Missing Value Source: NWS Daily Summary

Daily Weather History Graph

Daily Weather History Graph

Search for Another Location

Airport or City:

Trip Planner

Search our weather history database for the weather conditions in past years. The results will help you decide how hot, cold, wet, or windy it might be!

Date:

Astronomy

Apr. 09, 2013 Rise Set
Actual Time 6:54 AM EDT 7:58 PM EDT
Civil Twilight 6:26 AM EDT 8:27 PM EDT
Nautical Twilight 5:52 AM EDT 9:00 PM EDT
Astronomical Twilight 5:17 AM EDT 9:36 PM EDT
Moon 6:16 AM EDT (4/9) 7:33 PM EDT (4/9)
Length of Visible Light 14h 00m
Length of Day
13h 04m
Waning Crescent, 1% of the Moon is Illuminated
Apr 9
Waning Crescent
Apr 10
New
Apr 18
First Quarter
Apr 25
Full
May 2
Last Quarter

Hourly Weather History & Observations

Time (EDT) Temp. Windchill Dew Point Humidity Pressure Visibility Wind Dir Wind Speed Gust Speed Precip Events Conditions
12:17 AM 65.5 °F - 50.0 °F 57% 29.95 in 10.0 mi WSW 16.1 mph 23.0 mph N/A   Overcast
12:37 AM 64.9 °F - 50.9 °F 60% 29.96 in 10.0 mi WSW 13.8 mph 25.3 mph N/A Rain Rain
12:57 AM 64.4 °F - 50.7 °F 61% 29.97 in 10.0 mi WNW 8.1 mph 18.4 mph N/A   Overcast
1:17 AM 62.6 °F - 52.0 °F 68% 29.98 in 10.0 mi West 10.4 mph 16.1 mph N/A   Overcast
1:37 AM 62.6 °F - 52.3 °F 69% 29.99 in 10.0 mi WNW 12.7 mph 20.7 mph N/A   Overcast
1:56 AM 61.5 °F - 52.7 °F 73% 30.00 in 10.0 mi WNW 8.1 mph 18.4 mph N/A   Overcast
2:17 AM 60.3 °F - 49.5 °F 68% 30.00 in 10.0 mi WNW 9.2 mph 18.4 mph N/A   Overcast
2:37 AM 59.9 °F - 47.3 °F 63% 30.00 in 10.0 mi West 9.2 mph - N/A   Overcast
2:56 AM 59.4 °F - 45.7 °F 61% 30.00 in 10.0 mi West 10.4 mph - N/A   Overcast
3:17 AM 58.6 °F - 42.1 °F 54% 30.01 in 10.0 mi WNW 11.5 mph 20.7 mph N/A   Overcast
3:37 AM 56.8 °F - 42.6 °F 59% 30.02 in 10.0 mi NW 5.8 mph - N/A   Scattered Clouds
3:57 AM 54.3 °F - 42.3 °F 64% 30.03 in 10.0 mi NW 6.9 mph - N/A   Scattered Clouds
4:17 AM 52.0 °F - 41.7 °F 68% 30.03 in 10.0 mi NNW 5.8 mph - N/A   Scattered Clouds
4:37 AM 50.5 °F - 41.5 °F 71% 30.04 in 10.0 mi WNW 5.8 mph - N/A   Scattered Clouds
4:57 AM 49.5 °F - 41.0 °F 73% 30.05 in 10.0 mi NW 4.6 mph - N/A   Clear
5:17 AM 48.2 °F - 41.0 °F 76% 30.06 in 10.0 mi NW 4.6 mph - N/A   Clear
5:37 AM 46.9 °F - 40.5 °F 78% 30.06 in 10.0 mi NNW 5.8 mph - N/A   Clear
5:56 AM 46.4 °F 45.2 °F 40.6 °F 80% 30.07 in 10.0 mi NNW 3.5 mph - N/A   Clear
6:17 AM 46.0 °F - 40.8 °F 82% 30.09 in 10.0 mi Calm Calm - N/A   Scattered Clouds
6:36 AM 45.9 °F 44.6 °F 41.0 °F 83% 30.09 in 10.0 mi North 3.5 mph - N/A   Overcast
6:57 AM 45.7 °F 42.7 °F 41.2 °F 84% 30.09 in 10.0 mi NNE 5.8 mph - N/A   Overcast
7:17 AM 44.8 °F 43.3 °F 40.8 °F 86% 30.10 in 7.0 mi North 3.5 mph - N/A   Scattered Clouds
7:37 AM 44.8 °F 43.3 °F 41.5 °F 88% 30.11 in 7.0 mi North 3.5 mph - N/A   Clear
7:57 AM 45.5 °F 43.2 °F 42.8 °F 90% 30.11 in 5.0 mi NNE 4.6 mph - N/A   Clear
8:17 AM 45.9 °F 43.6 °F 42.8 °F 89% 30.10 in 7.0 mi ENE 4.6 mph - N/A   Clear
8:37 AM 46.9 °F - 42.8 °F 86% 30.10 in 7.0 mi ENE 5.8 mph - N/A   Clear
8:57 AM 47.8 °F - 42.8 °F 83% 30.09 in 7.0 mi ENE 6.9 mph - N/A   Clear
9:17 AM 49.5 °F - 42.8 °F 78% 30.09 in 10.0 mi East 6.9 mph - N/A   Clear
9:36 AM 51.1 °F - 42.8 °F 73% 30.10 in 10.0 mi ESE 4.6 mph - N/A   Clear
9:57 AM 53.4 °F - 43.0 °F 68% 30.10 in 10.0 mi SE 4.6 mph - N/A   Clear
10:17 AM 55.2 °F - 42.6 °F 63% 30.10 in 10.0 mi SSE 5.8 mph - N/A   Clear
10:36 AM 55.8 °F - 43.0 °F 62% 30.09 in 10.0 mi SSE 3.5 mph - N/A   Clear
10:57 AM 57.4 °F - 41.9 °F 56% 30.10 in 10.0 mi ESE 5.8 mph - N/A   Clear
11:17 AM 59.2 °F - 43.0 °F 55% 30.08 in 10.0 mi South 5.8 mph - N/A   Clear
11:37 AM 60.8 °F - 42.8 °F 52% 30.08 in 10.0 mi SSE 6.9 mph - N/A   Clear
11:57 AM 63.0 °F - 43.0 °F 48% 30.07 in 10.0 mi SE 4.6 mph - N/A   Clear
12:17 PM 64.6 °F - 42.8 °F 45% 30.06 in 10.0 mi SE 4.6 mph - N/A   Clear
12:37 PM 66.7 °F - 44.4 °F 44% 30.06 in 10.0 mi ESE 5.8 mph - N/A   Clear
12:56 PM 67.3 °F - 46.0 °F 46% 30.05 in 10.0 mi South 4.6 mph - N/A   Mostly Cloudy
1:17 PM 67.8 °F - 46.4 °F 46% 30.03 in 10.0 mi SSE 5.8 mph - N/A   Overcast
1:37 PM 70.2 °F - 47.7 °F 45% 30.02 in 10.0 mi South 8.1 mph - N/A   Scattered Clouds
1:56 PM 72.1 °F - 49.1 °F 44% 30.01 in 10.0 mi SE 6.9 mph - N/A   Clear
2:17 PM 71.4 °F - 49.6 °F 46% 30.00 in 10.0 mi South 6.9 mph - N/A   Scattered Clouds
2:37 PM 73.8 °F - 49.8 °F 43% 29.99 in 10.0 mi South 9.2 mph - N/A   Mostly Cloudy
2:57 PM 73.4 °F - 49.3 °F 42% 29.98 in 10.0 mi South 5.8 mph - N/A   Overcast
3:17 PM 73.2 °F - 49.8 °F 44% 29.97 in 10.0 mi South 6.9 mph - N/A   Overcast
3:37 PM 73.9 °F - 50.2 °F 43% 29.96 in 10.0 mi SSW 6.9 mph - N/A   Overcast
3:57 PM 74.5 °F - 50.4 °F 43% 29.95 in 10.0 mi SSW 9.2 mph - N/A   Overcast
4:17 PM 75.2 °F - 50.5 °F 42% 29.93 in 10.0 mi SSW 10.4 mph 17.3 mph N/A   Mostly Cloudy
4:36 PM 75.2 °F - 50.7 °F 42% 29.92 in 10.0 mi South 4.6 mph - N/A   Overcast
4:57 PM 77.5 °F - 50.4 °F 38% 29.91 in 10.0 mi SSW 6.9 mph - N/A   Mostly Cloudy
5:17 PM 77.9 °F - 50.0 °F 38% 29.91 in 10.0 mi SSW 10.4 mph 16.1 mph N/A   Mostly Cloudy
5:37 PM 77.0 °F - 49.8 °F 38% 29.90 in 10.0 mi SSW 11.5 mph 17.3 mph N/A   Mostly Cloudy
5:57 PM 76.5 °F - 50.0 °F 39% 29.90 in 10.0 mi SSW 9.2 mph 16.1 mph N/A   Mostly Cloudy
6:17 PM 76.5 °F - 50.4 °F 40% 29.90 in 10.0 mi SSW 8.1 mph 17.3 mph N/A   Mostly Cloudy
6:36 PM 77.2 °F - 50.4 °F 39% 29.89 in 10.0 mi SW 8.1 mph - N/A   Mostly Cloudy
6:57 PM 77.2 °F - 50.2 °F 39% 29.89 in 10.0 mi SW 12.7 mph 20.7 mph N/A   Mostly Cloudy
7:17 PM 76.6 °F - 50.0 °F 39% 29.89 in 10.0 mi SW 13.8 mph 23.0 mph N/A   Mostly Cloudy
7:37 PM 76.1 °F - 50.4 °F 40% 29.89 in 10.0 mi SW 11.5 mph 23.0 mph N/A   Scattered Clouds
7:57 PM 75.7 °F - 49.8 °F 40% 29.88 in 10.0 mi SW 9.2 mph 23.0 mph N/A   Clear
8:17 PM 75.2 °F - 49.3 °F 40% 29.89 in 10.0 mi SW 11.5 mph 18.4 mph N/A   Clear
8:36 PM 74.7 °F - 49.3 °F 41% 29.90 in 10.0 mi SW 9.2 mph 18.4 mph N/A   Scattered Clouds
8:57 PM 74.3 °F - 49.3 °F 41% 29.91 in 10.0 mi WSW 8.1 mph 16.1 mph N/A   Clear
9:17 PM 73.6 °F - 49.5 °F 43% 29.91 in 10.0 mi WSW 9.2 mph - N/A   Scattered Clouds
9:37 PM 73.2 °F - 49.5 °F 43% 29.90 in 10.0 mi SW 8.1 mph - N/A   Scattered Clouds
9:57 PM 72.3 °F - 49.5 °F 44% 29.91 in 10.0 mi SW 6.9 mph - N/A   Clear
10:17 PM 72.0 °F - 49.6 °F 45% 29.91 in 10.0 mi SW 6.9 mph - N/A   Scattered Clouds
10:57 PM 71.2 °F - 50.0 °F 47% 29.92 in 10.0 mi WSW 11.5 mph 17.3 mph N/A   Scattered Clouds
11:17 PM 71.6 °F - 50.0 °F 46% 29.92 in 10.0 mi WSW 10.4 mph - N/A   Mostly Cloudy
11:37 PM 71.2 °F - 50.0 °F 47% 29.91 in 10.0 mi WSW 6.9 mph - N/A   Overcast
11:56 PM 71.2 °F - 50.0 °F 47% 29.91 in 10.0 mi WSW 8.1 mph - N/A   Overcast